sat.trackr.live / text

‹ back to catalog

STARLINK-37952

NORAD 69561 · 2026-135R

PAYLOAD ACTIVE UNKNOWN

§ Identity

Operator
Country
US
Launch date
2026-06-15
Launch site
AFWTR
Launch vehicle
Mass (kg)
RCS (m²)

Purposes: comms

External: N2YO · Heavens-Above · Gunter

§ Orbital elements

Epoch: 2026-09-20T01:18:11.964096Z

Period
93.91 min
Inclination
97.2848°
Eccentricity
0.0001439
Mean motion
15.33451699 rev/d
Perigee alt
464.5 km
Apogee alt
466.5 km
Semi-major
6,843.7 km
B*
3.6413e-4
RAAN
290.7746°
Arg perigee
96.6043°
Mean anomaly
263.5363°
Rev number
1,493

§ Raw data

STARLINK-379521 69561U 26135R   26263.05430514  .00011701  00000+0  36413-3 0  99942 69561  97.2848 290.7746 0001439  96.6043 263.5363 15.33451699 14938

JSON: /api/v1/satellites/69561 · /tle

For live sub-satellite position, see the globe view (requires WebGL).

§ Visibility from observer

Set your observer location to see the next 7 days of passes ≥ 10°. The values pass through the URL so the page stays shareable.

No JS? Fill the form by hand. The geolocation button needs JavaScript.